This is the latest recevied weather packets stored in our database for station/object DP0GVN-13. If no packets are shown the sender has not sent any weather packets the latest 10 day(s).
| Time | Temp. | Humidity | Pressure | Rain* | Wind** | Luminosity | Snow |
|---|---|---|---|---|---|---|---|
| 1777912212 | -17.78° C | 79% | 982.3 hPa | - | - | 0 W/m² | - |
| 1777910412 | -17.78° C | 76% | 983.1 hPa | - | - | 0 W/m² | - |
| 1777908612 | -18.89° C | 80% | 984.2 hPa | - | - | 0 W/m² | - |
| 1777906812 | -17.78° C | 80% | 985 hPa | - | - | 0 W/m² | - |
| 1777905012 | -18.89° C | 78% | 985.5 hPa | - | - | 0 W/m² | - |
| 1777903212 | -20° C | 75% | 986.3 hPa | - | - | 0 W/m² | - |
| 1777901412 | -20° C | 74% | 987.1 hPa | - | - | 0 W/m² | - |
| 1777899612 | -21.67° C | 78% | 987.4 hPa | - | - | 0 W/m² | - |
| 1777897812 | -23.89° C | 77% | 987.9 hPa | - | - | 0 W/m² | - |
| 1777896012 | -23.89° C | 74% | 988.7 hPa | - | - | 0 W/m² | - |
| 1777894212 | -25.56° C | 78% | 989 hPa | - | - | 0 W/m² | - |
| 1777892412 | -28.89° C | 75% | 989.4 hPa | - | - | 0 W/m² | - |
| 1777890612 | -30° C | 72% | 989.7 hPa | - | - | 0 W/m² | - |
| 1777888812 | -28.89° C | 73% | 990.1 hPa | - | - | 0 W/m² | - |
| 1777887031 | -28.89° C | 72% | 990.3 hPa | - | - | 0 W/m² | - |
| 1777885212 | -28.89° C | 72% | 990.6 hPa | - | - | 0 W/m² | - |
| 1777883412 | -30° C | 72% | 990.9 hPa | - | - | 0 W/m² | - |
| 1777881612 | -30° C | 72% | 990.9 hPa | - | - | 0 W/m² | - |
| 1777879812 | -30° C | 73% | 990.9 hPa | - | - | 0 W/m² | - |
| 1777878012 | -30° C | 73% | 991.3 hPa | - | - | 0 W/m² | - |
| 1777876212 | -30° C | 74% | 991.7 hPa | - | - | 0 W/m² | - |
| 1777874412 | -30° C | 74% | 992.4 hPa | - | - | 0 W/m² | - |
| 1777872612 | -30° C | 74% | 992.4 hPa | - | - | 0 W/m² | - |
| 1777870812 | -28.89° C | 71% | 992 hPa | - | - | 0 W/m² | - |
| 1777869012 | -28.89° C | 72% | 992.7 hPa | - | - | 0 W/m² | - |
* Rain since midnight (hover to see other rain measurements)
** Current wind speed in m/s (hover to see current wind gust speed)